Regional Weather Roundup
Issued by NWS

Home | Current Version | Previous Version | Graphics & Text | Print | Product List | Glossary Off
Versions: 1 2 3 4 5 6 7 8 9 10 11 12 13 14 15 16 17 18 19 20 21 22 23 24 25 26 27 28 29 30 31 32 33 34 35 36 37 38 39 40 41 42 43 44 45 46 47 48 49 50

000
ASUS43 KMKX 270400
RWRWI

WISCONSIN REGIONAL WEATHER ROUNDUP
NATIONAL WEATHER SERVICE MILWAUKEE/SULLIVAN WI
1100 PM CDT TUE AUG 26 2014

NOTE: "FAIR" INDICATES FEW OR NO CLOUDS BELOW 12,000 FEET WITH NO
SIGNIFICANT WEATHER AND/OR OBSTRUCTIONS TO VISIBILITY.

WIZ001-002-006>008-014>016-023>028-270500-
NORTHWEST WISCONSIN

CITY           SKY/WX    TMP DP  RH WIND       PRES   REMARKS
SUPERIOR ARPT  MOCLDY    57  51  78 CALM      30.16S
ASHLAND        MOCLDY    56  53  90 W3        30.17R
HAYWARD        MOCLDY    57  55  93 CALM      30.17R
SIREN          LGT RAIN  59  55  85 N3        30.16S
RICE LAKE      CLOUDY    61  55  80 CALM      30.18R
LADYSMITH      MOCLDY    61  55  79 CALM      30.17S
EAU CLAIRE     MOCLDY    62  57  83 CALM      30.15R
MENOMONIE      MOCLDY    64  57  78 CALM      30.16S
NEW RICHMOND   CLOUDY    61  55  81 N3        30.17R
OSCEOLA        CLOUDY    62  56  82 CALM      30.19S
$$

WIZ003>005-009-010-017-018-270500-
NORTH CENTRAL WISCONSIN

CITY           SKY/WX    TMP DP  RH WIND       PRES   REMARKS
WOODRUFF       PTCLDY    57  55  92 CALM      30.15F
RHINELANDER    PTCLDY    56  52  86 CALM      30.16S
EAGLE RIVER    PTCLDY    49  49 100 CALM      30.15S FOG
LAND O LAKES   CLEAR     48  47  98 CALM      30.16S
PHILLIPS       CLOUDY    55  53  96 CALM      30.15F
TOMAHAWK       MOCLDY    54  52  94 CALM      30.16S
MEDFORD        MOCLDY    56  55  97 CALM      30.16S
MERRILL        MOCLDY    58  55  89 CALM      30.15S
$$

WIZ029-030-035-036-043>047-270500-
CENTRAL WISCONSIN

CITY           SKY/WX    TMP DP  RH WIND       PRES   REMARKS
WAUSAU         MOCLDY    61  55  81 NW5       30.14R
MOSINEE        MOCLDY    59  55  88 NW6       30.16S
MARSHFIELD     PTCLDY    58  54  86 NW6       30.15S
STEVENS POINT  MOCLDY    61  53  75 NW3       30.15S
WAUPACA        MOCLDY    62  59  90 CALM      30.14R
WAUTOMA        NOT AVBL
WISC RAPIDS    MOCLDY    62  56  80 NW3       30.15S
CAMP DOUGLAS   NOT AVBL
$$

WIZ011>013-019>022-031-037>040-048>050-270500-
NORTHEAST WISCONSIN

CITY           SKY/WX    TMP DP  RH WIND       PRES   REMARKS
ANTIGO         PTCLDY    57  55  90 NW3       30.15S
STURGEON BAY   CLEAR     61  57  88 S3        30.12R
GREEN BAY      PTCLDY    59  57  93 NW5       30.12R
MANITOWOC      NOT AVBL
APPLETON       PTCLDY    61  54  77 W7        30.14R
CLINTONVILLE   PTCLDY    61  55  82 W5        30.13R
OSHKOSH        CLEAR     63  57  81 W5        30.13R
$$

WIZ032>034-041-042-053>061-270500-
SOUTHWEST WISCONSIN

CITY           SKY/WX    TMP DP  RH WIND       PRES   REMARKS
LA CROSSE      CLOUDY    66  59  78 N3        30.14S
SPARTA         CLOUDY    61  58  91 CALM      30.16S
VIROQUA        FAIR      63  62  97 CALM      30.16R
BOSCOBEL       CLOUDY    67  61  81 CALM      30.14R
PRAIRIE DU CHI CLOUDY    67  61  80 CALM      30.13R
PLATTEVILLE    FAIR      65  62  90 N3        30.14F
$$

WIZ056-057-062-063-064-067-068-270500-
SOUTH CENTRAL WISCONSIN

CITY           SKY/WX    TMP DP  RH WIND       PRES   REMARKS
BARABOO/DELLS  MOCLDY    65  56  71 NW3       30.14S
LONE ROCK      NOT AVBL
WATERTOWN      CLEAR     61  60  96 CALM      30.13R
MADISON        PTCLDY    63  59  87 NW3       30.13S
MIDDLETON      FAIR      62  61  97 W3        30.14S
MONROE         PTCLDY    68  61  77 N6        30.12F
JANESVILLE     PTCLDY    68  61  77 CALM      30.11F
$$

WIZ051-052-058>065-066-070>072-270500-
SOUTHEAST WISCONSIN

CITY           SKY/WX    TMP DP  RH WIND       PRES   REMARKS
MILWAUKEE      PTCLDY    67  59  75 NW3       30.12S
WAUKESHA       CLEAR     63  57  82 NW3       30.13S
MILWAUKEE/TIMM CLEAR     64  59  82 CALM      30.13R
RACINE         CLEAR     66  62  87 NW3       30.13R
BURLINGTON     CLEAR     59  59  99 CALM      30.12S
KENOSHA        CLEAR     63  61  93 CALM      30.13R
FOND DU LAC    CLEAR     62  56  80 NW7       30.13S
SHEBOYGAN      CLEAR     58  57  97 CALM      30.12R
WEST BEND      CLEAR     61  55  82 NW3       30.13R
JUNEAU         PTCLDY    62  57  85 NW5       30.14S
$$

LSZ147-162-270500-
LAKE SUPERIOR

STATION/POSITION TIME  TEMP    WIND        PRES    WAVE
                       AIR SEA DIR/SP/G            HT/PER
                 (UTC) (F)     (DEG/KT/KT) (MB)    (FT/S)
W MID LAKE BUOY  0250   58 55  310/  4/  4 1020.3R   1/ 5
DEVILS ISLAND    0300   61     340/  7/  8 1020.6R
PORT WING        0340   62     320/ 10/ 12 1021.0R
SAXON HARBOR     0300   57      CALM  /  3 1020.7R
$$

LMZ867-665-643>646-270500-
LAKE MICHIGAN

STATION/POSITION TIME  TEMP    WIND        PRES    WAVE
                       AIR SEA DIR/SP/G            HT/PER
                 (UTC) (F)     (DEG/KT/KT) (MB)    (FT/S)
N MID LAKE BUOY  0250   65 66  360/ 12/ 17 1019.3R   0
NORTHPORT PIER   0300   63     190/  3/  5 1019.0S
SISTER BAY       0311   63     150/  4/  7   N/A
ALGOMA LAKESHORE 0138             CALM       N/A
KEWAUNEE LAKESHO 0300   63     300/  3/  4 1018.5R
SHEBOYGAN LAKESH 0300   69 66  310/  6/  7 1019.6R
ATWATER BUOY     0300   70     310/  4/  6 1020.8R
MILWAUKEE LAKESH 0300   71     330/  3/  3   N/A
S MID LAKE BUOY  0250   69 69   40/  2/  2 1019.2R   1
KENOSHA   LAKESH 0300   70        CALM     1019.3R
$$

TC  - TEMPERATURE IN CELSIUS
VSB - VISIBILITY IN STATUTE MILES
WCI - WIND CHILL INDEX
HX  - HEAT INDEX




USA.gov is the U.S. government's official web portal to all federal, state and local government web resources and services.